1st Responders/1st Detectors/Storm Spotters Weather Summary for Bell County, KY

Forecast Maps


Reg. NEXRAD Animation


National Fire Danger: Day 1 & 2 Map

Current NWS Watch/Warnings

SPC Convective Day 1 Outlook


Day 2 Outlook

(Click images to enlarge|Page will refresh every 5 minutes)
UK Ag. Weather Center Desktop Severe Weather Service[HERE]
Bell County, KY Hazardous Weather Outlook Webcast
(9 AM to 9 PM Mon-Fri)
[Fast]
[Dial-up]


UKAWC 1st Detectors/1st Responders Precision Weather Forecast For BELL County, Kentucky
(based on the NWS County Digital Forecast)

ISSUED AT 17:00 UTC ON MONDAY AUG 03 2020
DAY MONDAY
EDT 3HR 2P 3P 4P 5P 6P 7P
MAX/MIN -- -- -- -- -- 83°
TEMP 83° 83° 83° 81° 79° 76°
SKY COVER 63% 67% 70% 70% 66% 59%
Clouds
DEW PT 67° 68° 67° 67° 67° 68°
RH 60% 62% 60% 64% 69% 76%
POP 12HR -- -- -- -- -- --
RAIN/SNOW (liq.equ) 0.03in -- -- -- -- --
SNOWFALL 0in -- -- -- -- --
WIND SPEED(MPH) 7 7 7 6 6 5
WIND Gust(MPH) 9 9 8 8 8 8
WIND DIR S S S S S S
DEW -- -- -- -- -- Lgt Dew
HeatIndex 86 86 86 83 79 76
Rain Showers Chance Chance Chance Chance Chance Chance
Thunder Storm Chance Chance Chance Chance Chance Chance
Fog -- -- -- -- -- --
WIND CHILL -- -- -- -- -- --
SPRAY COND
DRY COND
LIVESTOCK HEATSTRESS 77.68 77.94 77.68 76.60 75.56 73.73



DAY TUESDAY WEDNESDAY THURSDAY FRIDAY SATURDAY SUNDAY
EDT 6HR 8P 9P 10P 11P MIDN 1A 2A 3A 4A 5A 6A 7A 8A 9A 10A 11A NOON 1P 2P 3P 4P 5P 6P 7P 8P 9P 10P 11P MIDN 1A 2A 5A 8A 11A 2P 5P 8P 2A 8A 2P 8P 2A 8A 2P 8P 2A 8A 2P 8P 2A 8A 2P 8P
MAX/MIN -- -- -- -- -- -- -- -- -- -- -- -- 61° -- -- -- -- -- -- -- -- -- -- 81° -- -- -- -- -- -- -- -- 61° -- -- 81° -- -- 61° 83° -- -- 61° 86° -- -- 63° 88° -- -- 65° 86° --
TEMP 74° 70° 68° 65° 65° 63° 63° 63° 63° 61° 61° 61° 63° 65° 70° 72° 76° 77° 79° 79° 79° 79° 76° 74° 72° 70° 67° 65° 65° 63° 63° 61° 63° 74° 79° 79° 74° 63° 63° 81° 76° 65° 65° 83° 76° 67° 67° 85° 77° 67° 67° 83° 77°
SKY COVER 52% 47% 42% 38% 35% 34% 36% 41% 47% 53% 55% 56% 56% 52% 49% 47% 48% 49% 50% 50% 49% 46% 43% 38% 36% 33% 31% 32% 33% 33% 34% 35% 36% 41% 46% 42% 29% 29% 44% 48% 28% 16% 10% 35% 26% 18% 32% 44% 33% 38% 46% 55% 54%
Clouds
DEW PT 68° 67° 67° 65° 65° 63° 63° 63° 63° 61° 61° 61° 63° 65° 67° 68° 67° 65° 65° 65° 65° 65° 65° 67° 67° 67° 65° 65° 65° 63° 63° 61° 63° 67° 65° 65° 65° 61° 63° 67° 67° 63° 63° 65° 67° 65° 65° 67° 70° 65° 67° 70° 72°
RH 84% 90% 93% 100% 99% 100% 100% 100% 99% 100% 100% 99% 99% 100% 93% 87% 74% 66% 64% 62% 62% 64% 68% 75% 84% 90% 93% 96% 99% 100% 99% 100% 99% 78% 64% 60% 75% 93% 100% 62% 73% 93% 96% 54% 73% 93% 92% 57% 76% 93% 96% 65% 81%
POP 12HR 42% -- -- -- -- -- -- -- -- -- -- -- 24% -- -- -- -- -- -- -- -- -- -- -- 49% -- -- -- -- -- -- -- 21% -- -- -- 18% -- 8% -- 20% -- 11% -- 23% -- 16% -- 27% -- 22% -- 46%
RAIN/SNOW (liq.equ) 0.01in -- -- -- -- -- 0.01in -- -- -- -- -- 0.00in -- -- -- -- -- 0.03in -- -- -- -- -- 0.02in -- -- -- -- -- 0.00in -- 0.00in -- 0.00in -- 0.01in 0.00in 0.00in -- -- -- -- -- -- -- -- -- -- -- -- -- --
SNOWFALL 0in -- -- -- -- -- 0in -- -- -- -- -- 0in -- -- -- -- -- 0in -- -- -- -- -- 0in -- -- -- -- -- 0in -- 0in -- 0in -- 0in 0in 0in -- -- -- -- -- -- -- -- -- -- -- -- -- --
WIND SPEED(MPH) 2 1 1 0 0 0 0 0 0 0 0 0 0 0 2 2 2 5 5 5 5 5 5 2 1 1 1 1 1 0 0 0 1 0 1 1 1 0 0 1 0 0 0 1 0 0 1 1 0 0 1 1 1
WIND DIR S S S S SE SW S S S W W W W W W W NW NW NW NW NW NW NW NW NW NW NW NW N N N N N NE N N N NE E W N E SE W N SE SE W N SE SE W S
HeatIndex 74 70 68 65 65 63 63 63 63 61 61 61 63 65 70 72 76 77 79 82 82 79 76 74 72 70 67 65 65 63 63 61 63 74 79 81 74 63 63 83 76 65 65 86 76 67 67 88 77 67 67 88 77
Rain Showers Slight Chance Slight Chance Slight Chance Slight Chance Slight Chance -- -- -- -- -- -- -- -- -- -- -- Slight Chance Chance Chance Chance Chance Chance Chance Chance Slight Chance -- -- -- -- -- -- -- -- -- Slight Chance Slight Chance -- -- -- -- -- -- -- Slight Chance Slight Chance -- -- Slight Chance Slight Chance Slight Chance Slight Chance Chance Chance
Thunder Storm Slight Chance Slight Chance Slight Chance -- -- -- -- -- -- -- -- -- -- -- -- -- Slight Chance Slight Chance Chance Chance Chance Chance Chance Slight Chance Slight Chance -- -- -- -- -- -- -- -- -- Slight Chance Slight Chance -- -- -- -- -- -- -- Slight Chance Slight Chance -- -- Slight Chance Slight Chance Slight Chance Slight Chance Chance Chance
Fog -- -- -- -- -- Patchy Patchy Patchy Patchy Patchy Patchy Patchy Patchy Patchy -- -- -- -- -- -- -- -- -- -- -- -- -- -- -- -- -- -- -- -- -- -- -- -- -- -- -- -- -- -- -- -- -- -- -- -- -- -- --
WIND CHILL -- -- -- -- -- -- -- -- -- -- -- -- -- -- -- -- -- -- -- -- -- -- -- -- -- -- -- -- -- -- -- -- -- -- -- -- -- -- -- -- -- -- -- -- -- -- -- -- -- -- -- -- --
SPRAY COND
DRY COND
LIVESTOCK HEATSTRESS 72.66 69.38 67.65 65.00 64.97 63.00 63.00 63.00 62.98 61.00 61.00 60.99 62.98 65.00 69.57 71.06 73.54 73.60 75.00 74.78 74.78 75.00 72.97 71.91 70.84 69.38 66.68 64.86 64.97 63.00 62.98 61.00 62.98 72.16 75.00 74.56 71.91 62.84 63.00 76.36 73.45 64.76 64.86 76.88 73.45 66.68 66.64 78.80 74.60 66.68 66.82 78.34 75.10

Click on individual weather variable above in left-hand column (ie., TEMP, RH, QPF 12HR) to view state forecast maps






NWS 48 Hr. Forecast Maps,

Regional Hourly Observations For BELL County, Kentucky
Issued at 400 PM EDT MON AUG 03 2020
SOUTHEAST KENTUCKY
  
CITY           SKY/WX    TMP DP  RH WIND       PRES   REMARKS
JACKSON        SUNNY     83  63  50 CALM      29.99F                  
LONDON         SUNNY     84  61  45 W6        29.97F                  
SOMERSET       MOSUNNY   82  54  36 SW3       29.97F                  
MIDDLESBORO    PTSUNNY   82  65  55 CALM      29.98F                  
MONTICELLO     MOCLDY    86  66  51 VRB6G16   29.97F                  


Current NOWCAST not available:
Nowcasts are not issued routinely during fair weather. Only when
precipitation or other significant weather is occuring in this county will these
forecasts be issued. Currently, there is no short term forecast in effect.


Fire Weather Forecast For BELL County, KY
Provided by the National Weather Service:

Issued at: Mon Aug 3 16:05:01 EDT 2020

557 AM EDT Mon Aug 3 2020

                      Today        Tonight      Tue          

Cloud Cover           Pcldy        Pcldy        Pcldy        
Chance precip (%)     30           20           50           
Precip type           tstms        tstms        tstms        
Temp (24H TREND)      86 (+8)      60 (-2)      83           
Rh % (24H TREND)      45 (-11)     100 (+2)     54           
20ftwnd-AM(mph)       Lgt/Var                   Lgt/Var      
20ftwnd-PM(mph)       SW 2-6       Lgt/Var      NW 2-6       
Precip duration       1            1            1            
Precip begin                                                 
Precip end                                                   
Precip amount         0.03         0.01         0.04         
LAL                   3            3            3            
Haines Index (MID)    3                         3            
Mixing hgt(ft-AGL)    5900                      4800         
Transport wnd (mph)   SW  8                     W  8         
Vent rate (kt-ft)     41254                     33803        
ADI Early             27 Fair      2 Very Poor  35 Fair      
ADI Late              34 Fair      3 Very Poor  24 Fair      
Max LVORI Early       6            9            9            
Max LVORI Late        3            9            3            

Remarks...None.


SPC's Fire Weather Web Tool (Excellent!), SPC's Fire Weather Outlooks, NWS Fire Weather WEB, Fire Danger Class Map,
Keetch-Byram Drought Index, ROMAN Web, Haines Index ,
WFAS's 10-hr Dead Fuel Moist., WFAS's 100-hr Dead Fuel Moist., Probablity of Ignition, Visual blackness Map, Palmer Drought Index, HPC's Rainfall Forecast Maps


Hazardous Weather Outlook For BELL County, Kentucky
428 AM EDT Mon Aug 3 2020

 DAY ONE  Today and Tonight.

Thunderstorms are possible, mainly during the afternoon and
evening hours.

 DAYS TWO THROUGH SEVEN  Tuesday through Sunday.

Thunderstorms are possible at times from Tuesday through 
Sunday, and will be most prevalent during the afternoon and 
evening hours each day. 

 SPOTTER INFORMATION STATEMENT  

Spotter activation is not anticipated.

Latest BELL County, Kentucky Watches, Warnings and Advisories.
Additional Drought Info.: UKAWC Drought Page, Kentucky Drought Watch


7-Day Forecast For BELL County, KY

TONIGHT
Partly cloudy. A slight chance of showers and thunderstorms in the evening, then a slight chance of showers. Patchy fog late. Lows in the lower 60s. Light winds. Chance of rain 20 percent.

TUESDAY
Mostly sunny. Patchy fog early. A chance of showers and a slight chance of thunderstorms late in the morning. A chance of showers and thunderstorms in the afternoon. Highs around 80. Light winds. Chance of rain 50 percent.

TUESDAY NIGHT
Partly cloudy. A 20 percent chance of showers and thunderstorms in the evening. Lows in the lower 60s. Light winds.

WEDNESDAY
Mostly sunny. A 30 percent chance of showers and thunderstorms in the afternoon. Highs in the lower 80s. Light winds.

WEDNESDAY NIGHT
Partly cloudy. A 20 percent chance of showers in the evening. Areas of fog through the night. Lows in the lower 60s. Light winds.

THURSDAY
Mostly sunny with a chance of showers and a slight chance of thunderstorms. Areas of fog. Highs in the lower 80s. Chance of rain 30 percent.

THURSDAY NIGHT
Mostly clear. Areas of fog. Lows in the lower 60s.

FRIDAY
Mostly sunny. Areas of fog. Highs in the mid 80s.

FRIDAY NIGHT
Mostly clear. Areas of fog. Lows in the lower 60s.

SATURDAY
Mostly sunny with a 20 percent chance of showers and thunderstorms. Highs in the upper 80s.

SATURDAY NIGHT
Partly cloudy. Areas of fog. Lows in the mid 60s.

SUNDAY
Partly sunny with a 30 percent chance of showers and thunderstorms. Highs in the upper 80s.

SUNDAY NIGHT
Mostly cloudy with a 30 percent chance of showers and thunderstorms. Patchy fog. Lows in the mid 60s.

MONDAY
Partly sunny with a 50 percent chance of showers and thunderstorms. Patchy fog. Highs in the upper 80s.

Ag Weather Center, Department of Biosystems & Agricultural Engineering, University of Kentucky